Regional Weather Roundup
Issued by NWS

Home | Current Version | Previous Version | Text Only | Print | Product List | Glossary Off
Versions: 1 2 3 4 5 6 7 8 9 10 11 12 13 14 15 16 17 18 19 20 21 22 23 24 25 26 27 28 29 30 31 32 33 34 35 36 37 38 39 40 41 42 43 44 45 46 47 48 49 50

687
ASUS43 KMPX 201410
RWRMN
WEATHER ROUNDUP FOR MINNESOTA
NATIONAL WEATHER SERVICE TWIN CITIES/CHANHASSEN MN
900 AM CDT FRI APR 20 2018


NOTE: "FAIR" INDICATES FEW OR NO CLOUDS BELOW 12,000 FEET WITH NO
SIGNIFICANT WEATHER AND/OR OBSTRUCTIONS TO VISIBILITY. N/A MEANS
CURRENT SKY AND/OR WEATHER CONDITIONS ARE NOT AVAILABLE.

MNZ060>063-068>070-201500-
   Twin Cities Metro

CITY           SKY/WX    TMP DP  RH WIND       PRES   REMARKS
TWIN CITIES    PTSUNNY   36  28  73 CALM      30.51S
ST PAUL        FAIR      36  29  75 CALM      30.52F
CRYSTAL        FAIR      38  22  52 CALM      30.49F
BLAINE         PTSUNNY   37  27  65 CALM      30.50R
LAKEVILLE      FAIR      34  27  75 CALM      30.50S
EDEN PRAIRIE   FAIR      34  27  75 CALM      30.50R
SOUTH ST PAUL  FAIR      37  26  65 CALM      30.51F
LAKE ELMO      FAIR      36  28  75 CALM      30.52F
$$
MNZ001>005-007-008-013>017-022>024-027-028-201500-
   Northwest Minnesota

CITY           SKY/WX    TMP DP  RH WIND       PRES   REMARKS
BEMIDJI        FAIR      38  29  69 CALM      30.43S
HALLOCK        FAIR      39  36  87 SE6       30.40R
ROSEAU         FAIR      39  34  81 S5        30.41S
WARROAD        FAIR      43  32  65 CALM      30.42S
THIEF RVR FALL FAIR      39  32  76 S6        30.43R
CROOKSTON      FAIR      39  36  87 S5        30.43S
FOSSTON        FAIR      39  28  65 S8        30.44R
DETROIT LAKES  FAIR      41  32  70 CALM      30.44S
MOORHEAD       FAIR      37  30  75 S5        30.45R
PARK RAPIDS    FAIR      39  30  70 S5        30.44R
MAHNOMEN       FAIR      42  30  63 S7        30.43S
$$
MNZ006-009>011-018-025>026-201500-
   North Central Minnesota

CITY           SKY/WX    TMP DP  RH WIND       PRES   REMARKS
BAUDETTE       FAIR      39  29  67 S5        30.42R
FLAG ISLAND    FAIR      34  25  69 SE5       30.40S WCI  30
INTL FALLS     FAIR      40  27  59 CALM      30.42R
WASKISH        CLOUDY    45  30  57 SW3       30.43S
BIG FORK       FAIR      36  23  60 CALM      30.43S
LONGVILLE      FAIR      39  28  65 CALM      30.44S
GRAND RAPIDS   FAIR      39  29  67 NW3       30.46R
CRANE LAKE     FAIR      34  21  60 CALM      30.45S
ORR            FAIR      37  16  41 CALM      30.41R
COOK           FAIR      36  21  55 CALM      30.44R
WALKER         FAIR      42  31  66 CALM      30.44S
$$
MNZ012-019>021-037-201500-
   Northeast Minnesota

CITY           SKY/WX    TMP DP  RH WIND       PRES   REMARKS
DULUTH         FAIR      45  29  53 W5        30.44R
ELY            FAIR      36  18  48 CALM      30.43R
HIBBING        FAIR      34  24  67 CALM      30.44R
EVELETH        FAIR      35  22  59 CALM      30.45S
DULUTH HARBOR  FAIR      43  28  56 SW8       30.47S
TWO HARBORS    FAIR      54  30  40 W3        30.42R
SILVER BAY     FAIR      46  23  39 CALM      30.41S
GRAND MARAIS     N/A     38  27  64 CALM      30.43S
G MARAIS ARPRT FAIR      46  10  23 CALM      30.42S
$$
MNZ029>031-032-039>041-046>048-054>057-064-201500-
   West Central Minnesota

CITY           SKY/WX    TMP DP  RH WIND       PRES   REMARKS
FERGUS FALLS   FAIR      39  28  65 SE6       30.43S
WHEATON        MOSUNNY   36  30  80 SE7       30.47R
MORRIS         CLOUDY    36  28  75 SE7       30.45R
ALEXANDRIA     FAIR      42  25  50 SE3       30.46R
ELBOW LAKE     FAIR      37  29  72 E8        30.45R
WADENA         FAIR      37  28  70 CALM      30.45S
GLENWOOD       FAIR      37  25  60 CALM      30.46S
APPLETON       CLOUDY    36  25  64 S7        30.47R
BENSON         CLOUDY    37  27  65 S3        30.48R
ORTONVILLE     PTSUNNY   34  28  80 SE5       30.45S WCI  30
MADISON        MOSUNNY   34  27  75 SE6       30.46R WCI  29
WILLMAR        FAIR      36  30  80 SE5       30.49S
$$
MNZ033>034-036-042>043-049>051-058-059-201500-
   Central Minnesota

CITY           SKY/WX    TMP DP  RH WIND       PRES   REMARKS
ST CLOUD       FAIR      38  30  73 CALM      30.48S
SAUK CENTRE    FAIR      38  25  60 CALM      30.47S
PAYNESVILLE    FAIR      36  28  73 CALM      30.48S
AITKIN         FAIR      43  25  49 W5        30.44S
PINE RIVER     FAIR      37  27  65 CALM      30.47S
BRAINERD       FAIR      40  25  55 SW5       30.47R
STAPLES        FAIR      37  28  70 CALM      30.45F
LONG PRAIRIE   FAIR      37  25  60 S3        30.46S
LITTLE FALLS   FAIR      36  21  55 S3        30.48S
LITCHFIELD     FAIR      37  30  75 CALM      30.49R
BUFFALO        FAIR      33  25  71 CALM      30.51S
MAPLE LAKE     FAIR      36  28  74 CALM      30.50S
HUTCHINSON     FAIR      33  28  83 SE3       30.50R
$$
MNZ037-044-045-052-053-201500-
   East Central Minnesota

CITY           SKY/WX    TMP DP  RH WIND       PRES   REMARKS
PRINCETON      FAIR      41  28  60 CALM      30.49F
MORA           FAIR      37  28  70 CALM      30.51R
CAMBRIDGE      FAIR      39  27  60 CALM      30.50S
RUSH CITY      FAIR      39  27  63 CALM      30.50R
MOOSE LAKE     FAIR      37  25  60 CALM      30.45S
HINCKLEY       FAIR      37  32  81 CALM      30.49R
CLOQUET        FAIR      45  27  49 W3        30.44S
MCGREGOR       FAIR      41  28  60 SW3       30.46S
$$
MNZ071>073-080-081-089-090-097-098-201500-
   Southwest Minnesota

CITY           SKY/WX    TMP DP  RH WIND       PRES   REMARKS
MONTEVIDEO     MOSUNNY   37  25  60 S5        30.47R
GRANITE FALLS  CLOUDY    35  27  73 SE7       30.49R WCI  29
CANBY          MOSUNNY   32  23  69 CALM      30.46S
MARSHALL       MOSUNNY   33  21  61 SE6       30.47R WCI  28
REDWOOD FALLS  MOSUNNY   31  24  75 E7        30.48R WCI  24
OLIVIA         CLOUDY    34  30  86 SE6       30.48R WCI  29
PIPESTONE      MOSUNNY  N/A N/A N/A S7        30.44R
WINDOM         CLOUDY    36  16  44 SE7       30.47R
WORTHINGTON      N/A     35  23  61 S10       30.45R WCI  27
JACKSON        CLOUDY    32  21  64 SE8       30.47R WCI  25
TRACY          CLOUDY    35  24  64 S9        30.45R WCI  27
SLAYTON        CLOUDY    30  23  75 SE9       30.45R WCI  22
$$
MNZ065>067-074>077-082>085-091>093-201500-
   South Central Minnesota

CITY           SKY/WX    TMP DP  RH WIND       PRES   REMARKS
MANKATO        FAIR      29  24  82 SE5       30.50S WCI  24
NEW ULM        CLOUDY    30  19  64 S5        30.50R WCI  25
ST JAMES       CLOUDY    25  19  80 SE5       30.50R WCI  19
FAIRMONT       CLOUDY    26  18  71 SE3       30.50R
GLENCOE        FAIR      32  27  81 CALM      30.49S
OWATONNA       FAIR      36  28  75 CALM      30.50S
WASECA         FAIR      32  27  80 E5        30.51F WCI  27
ALBERT LEA     FAIR      28  19  69 CALM      30.49F HAZE
$$
MNZ078>079-086>088-094>096-201500-
   Southeast Minnesota

CITY           SKY/WX    TMP DP  RH WIND       PRES   REMARKS
ROCHESTER      FAIR      32  27  81 SW3       30.51R
RED WING       FAIR      36  23  60 CALM      30.52S
STANTON        FAIR      32  26  79 CALM      30.50S
DODGE CENTER   FAIR      34  25  69 CALM      30.51R
WINONA         FAIR      34  27  75 CALM      30.52R
AUSTIN         FAIR      28  23  80 CALM      30.51R
PRESTON        FAIR      33  23  66 CALM      30.52R
$$
ABBREVIATIONS USED IN REMARKS
   TC - TEMPERATURES IN CELSIUS
  WCI - WIND CHILL INDEX
   HX - HEAT INDEX
  VSB - VISIBILITY
$$




USA.gov is the U.S. government's official web portal to all federal, state and local government web resources and services.